This demonstration page uses our WeatherBlox Daily Observations layout. Learn more.

Left ArrowRight Arrow

Hourly Observations for August 22, 2018

Temp ( °F °C ) Dew Point ( °F °C ) Humidity (%) Winds ( mph kmh ) Pressure ( in mb ) Visibility ( mi km ) Precip ( " mm )
12:59 am 00:59 Mostly Cloudy 78 25.6 74 23.3 87 87 SSW 8 13 29.89 1012 10 16 0.00 0.00
1:59 am 01:59 Partly Cloudy 78 25.6 73 22.8 85 85 SSW 8 13 29.88 1012 10 16 0.00 0.00
2:59 am 02:59 Mostly Cloudy 77 25 73 22.8 88 88 SSW 12 19 29.85 1011 10 16 0.00 0.00
3:59 am 03:59 Mostly Cloudy 77 25 73 22.8 88 88 SSW 10 17 29.84 1011 10 16 0.00 0.00
4:59 am 04:59 Mostly Cloudy 77 25 73 22.8 88 88 SW 9 15 29.84 1011 10 16 0.00 0.00
5:59 am 05:59 Mostly Cloudy 77 25 73 22.8 88 88 SW 12 19 29.84 1011 10 16 0.00 0.00
6:59 am 06:59 Partly Cloudy 77 25 73 22.8 88 88 SW 10 17 29.85 1011 9 14 0.00 0.00
7:59 am 07:59 Mostly Cloudy 78 25.6 72 22.2 82 82 SW 14 22 29.85 1011 10 16 0.00 0.00
8:59 am 08:59 Partly Cloudy 79 26.1 71 21.7 77 77 W 14 22 29.86 1011 10 16 0.00 0.00
9:59 am 09:59 Mostly Sunny 81 27.2 71 21.7 72 72 W 13 20 29.87 1011 10 16 0.00 0.00
10:59 am 10:59 Mostly Sunny 83 28.3 71 21.7 67 67 W 10 17 29.87 1012 10 16 0.00 0.00
11:59 am 11:59 Mostly Sunny 84 28.9 70 21.1 63 63 WSW 13 20 29.86 1011 10 16 0.00 0.00
12:59 pm 12:59 Mostly Sunny 86 30 71 21.7 61 61 WSW 9 15 29.84 1011 10 16 0.00 0.00
1:59 pm 13:59 Partly Cloudy 87 30.6 71 21.7 59 59 W 8 13 29.84 1010 10 16 0.00 0.00
2:59 pm 14:59 Partly Cloudy 87 30.6 71 21.7 59 59 WSW 10 17 29.83 1010 10 16 0.00 0.00
3:59 pm 15:59 Partly Cloudy 88 31.1 70 21.1 55 55 W 10 17 29.81 1010 10 16 0.00 0.00
4:59 pm 16:59 Partly Cloudy 87 30.6 69 20.6 55 55 W 13 20 29.81 1010 10 16 0.00 0.00
5:59 pm 17:59 Mostly Cloudy 77 25 68 20 74 74 NNW 16 26 29.85 1011 10 16 0.00 0.00
6:59 pm 18:59 Mostly Cloudy 76 24.4 69 20.6 79 79 NNW 12 19 29.86 1011 10 16 0.00 0.00
7:59 pm 19:59 Cloudy 77 25 67 19.4 71 71 NW 9 15 29.88 1012 10 16 0.00 0.00
8:59 pm 20:59 Cloudy 74 23.3 69 20.6 85 85 NNW 5 7 29.88 1012 10 16 0.02 0.51
9:59 pm 21:59 Cloudy 73 22.8 70 21.1 90 90 Calm 29.90 1013 10 16 0.00 0.00
10:59 pm 22:59 Cloudy 73 22.8 69 20.6 87 87 NW 7 11 29.90 1013 10 16 0.00 0.00
11:59 pm 23:59 Mostly Cloudy 74 23.3 70 21.1 88 88 SSW 7 11 29.91 1013 10 16 0.00 0.00

Powered by AerisWeather